Location: Newark
(54.6833°N, 25.2833°E)
Time: 09:51:35
(UTC+00:00)

Tiros 1 despin weight - Pass Details

Date: 19 November 2019
Orbit: 594 x 642 km, 48.2° (Epoch: 08 December)

Event Time Altitude Azimuth Distance (km) Brightness Sun altitude
Rises 12:37:14 0° 231° (SW) 2,824 ? 9.0°
Reaches altitude 10° 12:39:46 10° 219° (SW) 1,927 ? 8.8°
Maximum altitude 12:43:29 27° 161° (SSE) 1,161 ? 8.4°
Drops below altitude 10° 12:47:14 10° 104° (ESE) 1,947 ? 8.1°
Sets 12:49:48 0° 92° (E) 2,860 ? 7.9°
